AO-85 (40967 NORAD) Tracking and Keplerian Element Data

This shows tracking and keplerian element data for the satellite.

Feedback or suggestion? Click here.




ElementValue
Catalog40967
NameAO-85
Epoch Orbit8811
Epoch Day354.21196327
Epoch Year2022
RAAN226.3869
Inclination64.774
Eccentricity0.0170916
Argument of Perigee137.7522
Mean Anonmoly223.6901
Mean Motion14.78260774
Decay Rate1.968E-05
L11 40967U 15058D 22354.21196327 .00001968 00000-0 22975-3 0 5653
L22 40967 64.7740 226.3869 0170916 137.7522 223.6901 14.78260774 88110



Live tracking and technical data element details for AO-85 (NORAD 40967). AO-85 can be tracked NOW for your location showing map with azimuth and elevation plus other details from your city location.







IsCatalogInMostPopularTable: catalog: 40967, numindb: 815
Update: records affected: 1



GetName: 40967 AO-85

Hit Count: updated at: Sat, 20 Apr 2024 09:58:32 GMT